QPF
0.00 0.00 0.00 0.00 0.00 0.00 0.00 0.00 0.00 0.00 0.00 0.00 0.00 0.00 0.00 0.00 0.00 0.00 0.00 0.00 0.00 0.00 0.00 0.00 0.00 0.00 0.00 0.00 0.00 0.00 0.00 0.00 0.00 0.00 0.00 0.00 0.00 0.00 0.00 0.00 0.00 0.00
0.00 0.00 0.00 0.00 0.00 0.00 0.00 0.00 0.00 0.00 0.00 0.00 0.00 0.00 0.00 0.00 0.00 0.00 0.00 0.00 0.00 0.00 0.00 0.00 0.00 0.00 0.00 0.00 0.00 0.00 0.00 0.00 0.00 0.00 0.00 0.00 0.00 0.00 0.00 0.00 0.00 0.00
0.00 0.00 0.00 0.00 0.00 0.00 0.00 0.00 0.00 0.00 0.00 0.00 0.00 0.00 0.00 0.00 0.00 0.00 0.00 0.00 0.00 0.00 0.00 0.00 0.00 0.00 0.00 0.00 0.00 0.00 0.00 0.00 0.00 0.00 0.00 0.00 0.00 0.00 0.00 0.00 0.00 0.00
0.00 0.00 0.00 0.00 0.00 0.00 0.00 0.00 0.00 0.00 0.00 0.00 0.00 0.00 0.00 0.00 0.00 0.00 0.00 0.00 0.00 0.00 0.00 0.00 0.00 0.00 0.00 0.00 0.00 0.00 0.00 0.00 0.00 0.00 0.00 0.00 0.00 0.00 0.00 0.00 0.00 0.00
0.00 0.00 0.00 0.00 0.00 0.00 0.00 0.00 0.00 0.00 0.00 0.00 0.00 0.00 0.00 0.00 0.00 0.00 0.00 0.00 0.00 0.00 0.00 0.00 0.00 0.00 0.00 0.00 0.00 0.00 0.00 0.00 0.00 0.00 0.00 0.00 0.00 0.00 0.00 0.00 0.00 0.00
0.00 0.00 0.00 0.00 0.00 0.00 0.00 0.00 0.00 0.00 0.00 0.00 0.00 0.00 0.00 0.00 0.00 0.00 0.00 0.00 0.00 0.00 0.00 0.00 0.00 0.00 0.00 0.00 0.00 0.00 0.00 0.00 0.00 0.00 0.00 0.00 0.00 0.00 0.00 0.00 0.00 0.00
0.00 0.00 0.00 0.00 0.00 0.00 0.00 0.00 0.00 0.00 0.00 0.00 0.00 0.00 0.00 0.00 0.00 0.00 0.00 0.00 0.00 0.00 0.00 0.00 0.00 0.00 0.00 0.00 0.00 0.00 0.00 0.00 0.00 0.00 0.00 0.00 0.00 0.00 0.00 0.00 0.00 0.00
0.00 0.00 0.00 0.00 0.00 0.00 0.00 0.00 0.00 0.00 0.00 0.00 0.00 0.00 0.00 0.00 0.00 0.00 0.00 0.00 0.00 0.00 0.00 0.00 0.00 0.00 0.00 0.00 0.00 0.00 0.00 0.00 0.00 0.00 0.00 0.00 0.00 0.00 0.00 0.00 0.00 0.00
0.00 0.00 0.00 0.00 0.00 0.00 0.00 0.00 0.00 0.00 0.00 0.00 0.00 0.00 0.00 0.00 0.00 0.00 0.00 0.00 0.00 0.00 0.00 0.00 0.00 0.00 0.00 0.00 0.00 0.00 0.00 0.00 0.00 0.00 0.00 0.00 0.00 0.00 0.00 0.00 0.00 0.00
0.00 0.00 0.00 0.00 0.00 0.00 0.00 0.00 0.00 0.00 0.00 0.00 0.00 0.00 0.00 0.00 0.00 0.00 0.00 0.00 0.00 0.00 0.00 0.00 0.00 0.00 0.00 0.00 0.00 0.00 0.00 0.00 0.00 0.00 0.00 0.00 0.00 0.00 0.00 0.00 0.00 0.00
0.00 0.00 0.00 0.00 0.00 0.00 0.00 0.00 0.00 0.00 0.00 0.00 0.00 0.00 0.00 0.00 0.00 0.00 0.00 0.00 0.00 0.00 0.00 0.00 0.00 0.00 0.00 0.00 0.00 0.00 0.00 0.00 0.00 0.00 0.00 0.00 0.00 0.00 0.00 0.00 0.00 0.00
0.00 0.00 0.00 0.00 0.00 0.00 0.00 0.00 0.00 0.00 0.00 0.00 0.00 0.00 0.00 0.00 0.00 0.00 0.00 0.00 0.00 0.00 0.00 0.00 0.00 0.00 0.00 0.00 0.00 0.00 0.00 0.00 0.00 0.00 0.00 0.00 0.00 0.00 0.00 0.00 0.00 0.00
0.00 0.00 0.00 0.00 0.00 0.00 0.00 0.00 0.00 0.00 0.00 0.00 0.00 0.00 0.00 0.00 0.00 0.00 0.00 0.00 0.00 0.00 0.00 0.00 0.00 0.00 0.00 0.00 0.00 0.00 0.00 0.00 0.00 0.00 0.00 0.00 0.00 0.00 0.00 0.00 0.00 0.00
0.00 0.00 0.00 0.00 0.00 0.00 0.00 0.00 0.00 0.00 0.00 0.00 0.00 0.00 0.00 0.00 0.00 0.00 0.00 0.00 0.00 0.00 0.00 0.00 0.00 0.00 0.00 0.00 0.00 0.00 0.00 0.00 0.00 0.00 0.00 0.00 0.00 0.00 0.00 0.00 0.00 0.00
0.00 0.00 0.00 0.00 0.00 0.00 0.00 0.00 0.00 0.00 0.00 0.00 0.00 0.00 0.00 0.00 0.00 0.00 0.00 0.00 0.00 0.00 0.00 0.00 0.00 0.00 0.00 0.00 0.00 0.00 0.00 0.00 0.00 0.00 0.00 0.00 0.00 0.00 0.00 0.00 0.00 0.00
0.00 0.00 0.00 0.00 0.00 0.00 0.00 0.00 0.00 0.00 0.00 0.00 0.00 0.00 0.00 0.00 0.00 0.00 0.00 0.00 0.00 0.00 0.00 0.00 0.00 0.00 0.00 0.00 0.00 0.00 0.00 0.00 0.00 0.00 0.00 0.00 0.00 0.00 0.00 0.00 0.00 0.00
0.00 0.00 0.00 0.00 0.00 0.00 0.00 0.00 0.00 0.00 0.00 0.00 0.00 0.00 0.00 0.00 0.00 0.00 0.00 0.00 0.00 0.00 0.00 0.00 0.00 0.00 0.00 0.00 0.00 0.00 0.00 0.00 0.00 0.00 0.00 0.00 0.00 0.00 0.00 0.00 0.00 0.00
0.00 0.00 0.00 0.00 0.00 0.00 0.00 0.00 0.00 0.00 0.00 0.00 0.00 0.00 0.00 0.00 0.00 0.00 0.00 0.00 0.00 0.00 0.00 0.00 0.00 0.00 0.00 0.00 0.00 0.00 0.00 0.00 0.00 0.00 0.00 0.00 0.00 0.00 0.00 0.00 0.00 0.00
0.00 0.00 0.00 0.00 0.00 0.00 0.00 0.00 0.00 0.00 0.00 0.00 0.00 0.00 0.00 0.00 0.00 0.00 0.00 0.00 0.00 0.00 0.00 0.00 0.00 0.00 0.00 0.00 0.00 0.00 0.00 0.00 0.00 0.00 0.00 0.00 0.00 0.00 0.00 0.00 0.00 0.00
0.00 0.00 0.00 0.00 0.00 0.00 0.00 0.00 0.00 0.00 0.00 0.00 0.00 0.00 0.00 0.00 0.00 0.00 0.00 0.00 0.00 0.00 0.00 0.00 0.00 0.00 0.00 0.00 0.00 0.00 0.00 0.00 0.00 0.00 0.00 0.00 0.00 0.00 0.00 0.00 0.00 0.00
0.00 0.00 0.00 0.00 0.00 0.00 0.00 0.00 0.00 0.00 0.00 0.00 0.00 0.00 0.00 0.00 0.00 0.00 0.00 0.00 0.00 0.00 0.00 0.00 0.00 0.00 0.00 0.00 0.00 0.00 0.00 0.00 0.00 0.00 0.00 0.00 0.00 0.00 0.00 0.00 0.00 0.00
0.00 0.00 0.00 0.00 0.00 0.00 0.00 0.00 0.00 0.00 0.00 0.00 0.00 0.00 0.00 0.00 0.00 0.00 0.00 0.00 0.00 0.00 0.00 0.00 0.00 0.00 0.00 0.00 0.00 0.00 0.00 0.00 0.00 0.00 0.00 0.00 0.00 0.00 0.00 0.00 0.00 0.00
0.00 0.00 0.00 0.00 0.00 0.00 0.00 0.00 0.00 0.00 0.00 0.00 0.00 0.00 0.00 0.00 0.00 0.00 0.00 0.00 0.00 0.00 0.00 0.00 0.00 0.00 0.00 0.00 0.00 0.00 0.00 0.00 0.00 0.00 0.00 0.00 0.00 0.00 0.00 0.00 0.00 0.00
0.00 0.00 0.00 0.00 0.00 0.00 0.00 0.00 0.00 0.00 0.00 0.00 0.00 0.00 0.00 0.00 0.00 0.00 0.00 0.00 0.00 0.00 0.00 0.00 0.00 0.00 0.00 0.00 0.00 0.00 0.00 0.00 0.00 0.00 0.00 0.00 0.00 0.00 0.00 0.00 0.00 0.00
0.00 0.00 0.00 0.00 0.00 0.00 0.00 0.00 0.00 0.00 0.00 0.00 0.00 0.00 0.00 0.00 0.00 0.00 0.00 0.00 0.00 0.00 0.00 0.00 0.00 0.00 0.00 0.00 0.00 0.00 0.00 0.00 0.00 0.00 0.00 0.00 0.00 0.00 0.00 0.00 0.00 0.00
0.00 0.00 0.00 0.00 0.00 0.00 0.00 0.00 0.00 0.00 0.00 0.00 0.00 0.00 0.00 0.00 0.00 0.00 0.00 0.00 0.00 0.00 0.00 0.00 0.00 0.00 0.00 0.00 0.00 0.00 0.00 0.00 0.00 0.00 0.00 0.00 0.00 0.00 0.00 0.00 0.00 0.00
MSLP
1010.79 1011.03 1011.39 1011.67 1011.83 1011.95 1012.15 1012.43 1012.47 1012.75 1012.87 1012.79 1013.07 1013.19 1013.27 1013.19 1013.19 1013.35 1013.59 1013.83 1014.19 1014.47 1014.67 1014.79 1014.99 1015.27 1015.35 1015.55 1015.75 1015.99 1016.19 1016.43 1016.51 1016.63 1016.87 1017.07 1017.39 1017.55 1017.87 1017.83 1017.75 1017.67
1010.35 1010.55 1010.79 1011.07 1011.39 1011.47 1011.59 1011.71 1011.99 1012.19 1012.43 1012.43 1012.35 1012.47 1012.59 1012.75 1012.91 1013.03 1013.31 1013.59 1013.79 1014.11 1014.23 1014.47 1014.71 1014.95 1015.15 1015.35 1015.59 1015.91 1016.15 1016.23 1016.55 1016.23 1016.67 1016.99 1017.11 1017.23 1017.51 1017.55 1017.59 1017.43
1009.87 1010.19 1010.43 1010.75 1010.87 1011.07 1011.11 1011.19 1011.39 1011.63 1011.83 1011.91 1011.95 1012.03 1012.23 1012.27 1012.59 1012.75 1012.91 1013.19 1013.51 1013.71 1013.95 1014.11 1014.35 1014.59 1014.83 1014.99 1015.23 1015.59 1015.87 1016.15 1016.39 1016.15 1016.43 1016.75 1016.67 1016.91 1017.07 1017.11 1017.31 1017.39
1009.35 1009.51 1009.75 1009.99 1010.15 1010.47 1010.63 1010.91 1011.07 1011.23 1011.31 1011.63 1011.75 1011.67 1011.75 1011.83 1012.15 1012.47 1012.71 1012.91 1013.19 1013.43 1013.55 1013.75 1013.99 1014.23 1014.51 1014.71 1014.95 1015.27 1015.43 1015.75 1015.83 1015.91 1016.15 1016.35 1016.47 1016.51 1016.79 1016.79 1016.95 1017.11
1008.67 1008.95 1009.15 1009.39 1009.59 1009.83 1010.15 1010.51 1010.67 1010.79 1010.99 1010.99 1011.15 1011.31 1011.55 1011.71 1011.91 1012.15 1012.43 1012.71 1012.87 1013.15 1013.31 1013.55 1013.71 1013.95 1014.19 1014.51 1014.71 1015.11 1015.15 1015.47 1015.55 1015.79 1016.03 1016.31 1016.35 1016.43 1016.43 1016.59 1016.83 1017.11
1007.99 1008.27 1008.55 1008.87 1009.15 1009.51 1009.83 1010.03 1010.15 1010.27 1010.51 1010.71 1010.83 1010.87 1011.11 1011.35 1011.63 1011.83 1012.07 1012.39 1012.55 1012.71 1012.95 1013.15 1013.47 1013.59 1013.83 1014.23 1014.55 1014.79 1014.87 1015.11 1015.19 1015.51 1015.87 1016.11 1016.19 1016.11 1016.11 1016.31 1016.59 1016.91
1007.43 1007.75 1008.11 1008.31 1008.71 1008.95 1009.31 1009.47 1009.59 1009.75 1009.95 1010.03 1010.23 1010.59 1010.63 1011.03 1011.35 1011.47 1011.63 1011.91 1012.15 1012.35 1012.55 1012.83 1013.15 1013.39 1013.51 1013.91 1014.35 1014.63 1014.67 1014.71 1014.75 1015.11 1015.63 1015.79 1015.91 1016.07 1015.95 1016.07 1016.39 1016.59
1006.71 1007.03 1007.43 1007.75 1008.19 1008.47 1008.83 1008.99 1009.15 1009.35 1009.43 1009.67 1009.99 1010.07 1010.19 1010.51 1010.87 1011.07 1011.23 1011.47 1011.79 1012.03 1012.23 1012.39 1012.75 1013.07 1013.19 1013.47 1014.03 1014.35 1014.55 1014.43 1014.59 1014.79 1015.31 1015.55 1015.63 1015.95 1015.91 1015.83 1016.07 1016.43
1006.07 1006.55 1006.91 1007.35 1007.71 1007.95 1008.27 1008.39 1008.55 1008.79 1008.91 1009.31 1009.47 1009.55 1009.71 1009.95 1010.27 1010.59 1010.87 1011.11 1011.43 1011.67 1011.95 1012.15 1012.35 1012.71 1012.83 1013.07 1013.47 1013.87 1014.23 1014.23 1014.27 1014.47 1014.79 1015.11 1015.35 1015.55 1015.59 1015.63 1015.91 1016.19
1005.63 1005.87 1006.35 1006.71 1007.15 1007.23 1007.55 1007.63 1007.75 1008.11 1008.35 1008.71 1008.87 1008.95 1009.35 1009.55 1009.71 1010.07 1010.47 1010.83 1011.19 1011.39 1011.63 1011.83 1012.03 1012.23 1012.43 1012.63 1012.99 1013.31 1013.67 1013.99 1014.03 1014.15 1014.23 1014.39 1014.67 1014.95 1015.15 1015.31 1015.59 1015.95
1004.91 1005.19 1005.59 1005.95 1006.23 1006.39 1006.67 1006.87 1007.07 1007.35 1007.67 1008.11 1008.31 1008.51 1008.63 1009.07 1009.47 1009.59 1010.07 1010.47 1010.79 1010.99 1011.19 1011.43 1011.59 1011.75 1012.11 1012.27 1012.39 1012.59 1012.99 1013.31 1013.63 1013.79 1013.91 1014.03 1014.19 1014.39 1014.55 1014.75 1015.07 1015.35
1004.23 1004.47 1004.71 1005.03 1005.35 1005.59 1005.83 1006.07 1006.35 1006.71 1007.03 1007.39 1007.63 1008.03 1008.19 1008.39 1008.91 1009.19 1009.47 1009.87 1010.11 1010.31 1010.55 1010.83 1011.03 1011.23 1011.55 1011.79 1011.91 1012.11 1012.43 1012.71 1012.99 1013.31 1013.51 1013.63 1013.71 1013.87 1014.03 1014.15 1014.47 1014.71
1003.51 1003.79 1004.03 1004.39 1004.67 1004.91 1005.07 1005.39 1005.71 1005.95 1006.27 1006.63 1006.91 1007.31 1007.67 1007.91 1008.15 1008.71 1008.87 1009.19 1009.51 1009.71 1009.99 1010.23 1010.51 1010.71 1011.03 1011.27 1011.47 1011.67 1011.91 1012.23 1012.47 1012.79 1013.03 1013.15 1013.19 1013.27 1013.39 1013.51 1013.71 1013.99
1002.79 1003.07 1003.47 1003.71 1003.91 1004.31 1004.63 1004.79 1005.07 1005.39 1005.63 1005.91 1006.31 1006.87 1007.15 1007.39 1007.67 1008.11 1008.39 1008.63 1008.95 1009.19 1009.35 1009.55 1009.95 1010.27 1010.51 1010.71 1010.95 1011.15 1011.43 1011.71 1011.95 1012.19 1012.47 1012.63 1012.71 1012.79 1012.83 1012.91 1013.07 1013.23
1002.27 1002.63 1002.91 1003.23 1003.59 1003.99 1004.35 1004.55 1004.79 1005.03 1005.31 1005.59 1005.91 1006.35 1006.51 1006.75 1006.95 1007.31 1007.95 1008.31 1008.43 1008.71 1008.91 1009.03 1009.35 1009.63 1009.75 1010.07 1010.51 1010.75 1010.83 1011.19 1011.43 1011.63 1011.87 1012.15 1012.35 1012.39 1012.43 1012.43 1012.51 1012.63
1001.91 1002.31 1002.67 1002.95 1003.39 1003.75 1004.03 1004.23 1004.47 1004.79 1005.07 1005.35 1005.59 1005.91 1006.19 1006.39 1006.67 1006.91 1007.31 1007.79 1008.15 1008.31 1008.43 1008.55 1008.71 1008.75 1008.91 1009.35 1009.67 1010.03 1010.35 1010.55 1010.83 1011.15 1011.39 1011.59 1011.91 1012.11 1012.15 1012.11 1012.03 1012.03
1001.63 1002.03 1002.35 1002.87 1003.03 1003.35 1003.71 1004.07 1004.31 1004.47 1004.75 1005.07 1005.27 1005.51 1005.91 1006.15 1006.43 1006.75 1006.91 1007.11 1007.51 1007.75 1007.99 1007.99 1007.99 1007.95 1008.39 1008.87 1009.27 1009.55 1009.79 1010.07 1010.43 1010.75 1010.91 1011.15 1011.31 1011.63 1011.87 1011.87 1011.71 1011.59
1001.19 1001.55 1002.07 1002.43 1002.79 1003.19 1003.39 1003.67 1004.03 1004.31 1004.63 1004.83 1005.11 1005.35 1005.55 1005.75 1006.19 1006.39 1006.47 1006.55 1006.83 1007.07 1007.31 1007.35 1007.35 1007.31 1007.83 1008.31 1008.71 1009.07 1009.31 1009.51 1009.75 1010.11 1010.39 1010.63 1010.75 1010.91 1011.11 1011.23 1011.27 1011.27
1000.79 1001.27 1001.67 1002.03 1002.31 1002.63 1003.03 1003.47 1003.87 1004.23 1004.47 1004.71 1004.91 1004.87 1005.15 1005.59 1005.71 1005.91 1006.11 1006.11 1006.27 1006.63 1006.79 1006.67 1006.75 1006.75 1007.35 1007.75 1008.15 1008.55 1008.87 1009.07 1009.19 1009.43 1009.75 1009.99 1010.11 1010.31 1010.43 1010.59 1010.63 1010.79
1000.35 1000.75 1001.23 1001.55 1001.83 1002.31 1002.71 1003.15 1003.55 1003.83 1003.79 1003.91 1004.23 1004.51 1004.83 1005.03 1005.19 1005.43 1005.55 1005.79 1005.83 1006.03 1006.19 1006.11 1006.07 1006.19 1006.87 1007.31 1007.71 1008.11 1008.39 1008.67 1008.59 1008.83 1009.03 1009.19 1009.39 1009.59 1009.79 1009.91 1009.95 1010.11
1000.11 1000.43 1000.87 1001.19 1001.47 1001.83 1002.27 1002.59 1002.83 1002.99 1003.27 1003.43 1003.63 1003.95 1004.35 1004.63 1004.79 1005.11 1005.15 1005.23 1005.39 1005.47 1005.67 1005.75 1005.47 1005.67 1006.31 1006.79 1007.23 1007.63 1007.99 1008.31 1008.19 1008.23 1008.35 1008.47 1008.51 1008.75 1008.99 1009.11 1009.11 1009.23
999.67 1000.15 1000.55 1000.83 1001.15 1001.43 1001.79 1002.03 1002.15 1002.43 1002.83 1002.95 1003.27 1003.43 1003.59 1003.87 1004.11 1004.19 1004.59 1004.79 1004.79 1004.95 1005.15 1005.27 1004.83 1005.15 1005.63 1006.03 1006.43 1006.99 1007.51 1007.99 1007.79 1007.87 1007.91 1007.91 1008.03 1008.11 1008.27 1008.35 1008.35 1008.59
999.31 999.83 1000.23 1000.47 1000.71 1001.11 1001.39 1001.59 1001.91 1002.23 1002.43 1002.51 1003.07 1003.07 1003.23 1003.39 1003.55 1003.67 1003.79 1004.11 1004.35 1004.43 1004.59 1004.55 1004.51 1004.63 1005.19 1005.59 1006.03 1006.47 1007.27 1007.35 1007.31 1007.47 1007.63 1007.67 1007.55 1007.51 1007.59 1007.59 1007.71 1007.91
998.83 999.27 999.75 1000.07 1000.35 1000.71 1000.87 1001.03 1001.27 1001.55 1001.87 1001.87 1002.43 1002.67 1002.79 1002.71 1002.91 1003.23 1003.23 1003.27 1003.55 1003.75 1003.71 1004.15 1004.11 1004.03 1004.75 1005.27 1005.75 1006.23 1006.47 1006.63 1006.79 1007.03 1007.23 1007.35 1007.27 1007.11 1006.99 1006.99 1007.03 1007.35
998.27 998.75 999.19 999.59 999.91 1000.03 1000.23 1000.63 1000.87 1001.03 1001.19 1001.43 1001.71 1001.99 1002.15 1002.15 1002.35 1002.59 1002.71 1002.75 1002.71 1002.91 1003.19 1003.55 1003.47 1003.51 1003.99 1004.63 1005.23 1005.71 1006.03 1005.99 1006.23 1006.59 1006.95 1006.83 1006.87 1006.99 1006.71 1006.59 1006.63 1006.83
997.71 998.19 998.55 998.91 999.27 999.55 999.79 1000.11 1000.27 1000.59 1000.83 1001.07 1001.27 1001.39 1001.71 1001.75 1001.79 1001.95 1002.27 1002.27 1002.15 1002.35 1002.47 1002.63 1002.87 1002.75 1003.19 1003.87 1004.47 1005.03 1005.31 1005.35 1005.55 1006.19 1006.31 1006.15 1006.23 1006.51 1006.75 1006.47 1006.19 1006.27
Thickness
5828 5828 5826 5825 5824 5823 5823 5822 5821 5820 5820 5821 5821 5820 5821 5822 5822 5822 5820 5818 5816 5814 5813 5812 5809 5808 5806 5804 5802 5801 5799 5797 5796 5795 5793 5791 5789 5787 5785 5785 5786 5786
5830 5830 5829 5828 5827 5827 5827 5826 5825 5824 5823 5824 5825 5825 5825 5824 5824 5823 5822 5820 5818 5816 5815 5814 5812 5810 5808 5806 5804 5802 5799 5797 5797 5797 5795 5792 5791 5790 5787 5787 5787 5786
5833 5833 5832 5831 5830 5829 5830 5830 5829 5828 5828 5827 5827 5828 5827 5827 5826 5824 5823 5822 5820 5819 5817 5816 5814 5812 5810 5808 5806 5803 5801 5798 5797 5798 5796 5793 5793 5792 5791 5790 5789 5788
5836 5836 5836 5835 5835 5834 5833 5833 5831 5831 5831 5830 5830 5830 5830 5829 5827 5825 5824 5823 5821 5820 5819 5818 5816 5814 5812 5810 5808 5805 5803 5801 5799 5799 5797 5795 5794 5793 5793 5792 5790 5789
5841 5841 5840 5839 5838 5837 5836 5835 5834 5834 5833 5832 5832 5832 5831 5830 5828 5827 5825 5823 5822 5820 5820 5818 5817 5815 5813 5810 5808 5806 5804 5802 5801 5799 5796 5795 5794 5794 5794 5793 5791 5789
5846 5845 5844 5842 5841 5840 5838 5837 5837 5836 5835 5835 5835 5834 5833 5831 5829 5828 5826 5824 5823 5822 5821 5819 5817 5816 5814 5811 5808 5806 5805 5804 5803 5801 5797 5795 5795 5795 5795 5794 5792 5790
5851 5849 5848 5846 5844 5842 5840 5840 5839 5839 5838 5838 5836 5836 5835 5833 5830 5829 5828 5826 5824 5823 5822 5820 5818 5816 5814 5812 5808 5806 5806 5805 5805 5802 5798 5796 5795 5794 5795 5794 5793 5791
5855 5853 5851 5849 5847 5845 5843 5842 5841 5841 5840 5839 5838 5837 5837 5834 5831 5830 5829 5827 5825 5824 5823 5821 5819 5817 5816 5813 5809 5807 5806 5806 5806 5804 5799 5798 5796 5794 5794 5794 5793 5791
5859 5857 5854 5851 5850 5848 5846 5846 5844 5843 5842 5840 5839 5839 5838 5836 5834 5832 5830 5828 5826 5824 5823 5822 5820 5819 5817 5815 5812 5808 5806 5805 5806 5805 5802 5800 5798 5796 5795 5795 5793 5791
5862 5860 5857 5855 5853 5852 5851 5850 5848 5847 5845 5843 5842 5841 5839 5837 5836 5833 5830 5827 5826 5824 5823 5822 5821 5819 5818 5817 5814 5811 5808 5806 5805 5805 5804 5803 5801 5799 5798 5797 5795 5792
5867 5865 5863 5860 5859 5858 5856 5854 5853 5852 5849 5846 5844 5843 5841 5838 5836 5834 5832 5829 5826 5825 5824 5822 5822 5821 5819 5817 5816 5814 5811 5808 5807 5806 5805 5805 5803 5802 5801 5800 5797 5795
5871 5870 5868 5866 5864 5863 5861 5859 5858 5856 5853 5850 5848 5845 5844 5841 5839 5836 5834 5831 5829 5828 5827 5825 5824 5822 5821 5819 5817 5816 5814 5811 5809 5807 5806 5806 5805 5804 5804 5803 5801 5798
5875 5874 5872 5870 5868 5867 5865 5864 5862 5860 5858 5855 5853 5849 5847 5845 5842 5839 5837 5835 5833 5831 5830 5828 5826 5824 5823 5821 5819 5818 5816 5814 5812 5810 5808 5808 5807 5807 5806 5805 5805 5802
5879 5877 5875 5873 5871 5869 5867 5866 5865 5863 5861 5858 5856 5852 5849 5848 5846 5842 5840 5839 5836 5834 5833 5832 5830 5827 5825 5823 5821 5819 5818 5816 5814 5812 5810 5809 5809 5809 5809 5808 5807 5806
5880 5878 5876 5874 5872 5870 5868 5867 5866 5863 5862 5860 5857 5855 5852 5851 5850 5847 5843 5840 5838 5837 5836 5835 5833 5831 5830 5828 5824 5822 5820 5818 5816 5814 5813 5811 5810 5810 5810 5810 5809 5809
5880 5878 5876 5874 5872 5870 5868 5866 5865 5863 5861 5860 5859 5857 5854 5852 5851 5849 5846 5843 5840 5839 5838 5838 5837 5837 5835 5832 5829 5825 5823 5821 5819 5816 5815 5813 5811 5810 5809 5810 5811 5811
5880 5878 5876 5873 5872 5870 5868 5866 5864 5863 5862 5860 5859 5858 5855 5853 5851 5849 5848 5846 5844 5843 5841 5842 5842 5842 5839 5835 5832 5828 5826 5824 5821 5818 5816 5814 5813 5811 5810 5810 5810 5811
5881 5879 5876 5874 5872 5870 5868 5866 5863 5861 5860 5859 5858 5857 5856 5854 5852 5850 5850 5850 5848 5847 5845 5846 5847 5846 5842 5838 5834 5831 5828 5826 5824 5821 5819 5817 5815 5814 5812 5811 5811 5811
5882 5880 5877 5875 5873 5870 5868 5865 5862 5860 5860 5859 5859 5858 5857 5855 5853 5853 5852 5852 5851 5849 5848 5849 5850 5849 5845 5841 5837 5834 5830 5828 5827 5824 5822 5820 5819 5817 5815 5814 5813 5812
5882 5881 5878 5876 5875 5871 5868 5866 5863 5862 5863 5862 5861 5859 5858 5857 5856 5854 5853 5853 5853 5852 5851 5852 5854 5852 5848 5843 5839 5836 5832 5830 5829 5827 5825 5824 5823 5821 5818 5817 5817 5815
5883 5881 5878 5876 5875 5872 5869 5868 5867 5866 5866 5865 5864 5862 5860 5860 5858 5857 5856 5855 5855 5854 5852 5854 5856 5854 5850 5846 5842 5838 5833 5830 5830 5829 5828 5828 5827 5825 5822 5821 5821 5819
5884 5881 5878 5876 5875 5873 5872 5871 5870 5869 5868 5866 5865 5863 5863 5862 5860 5860 5859 5857 5857 5856 5854 5855 5858 5856 5852 5849 5846 5841 5834 5831 5831 5830 5830 5830 5830 5828 5826 5825 5824 5822
5885 5881 5879 5877 5876 5874 5873 5873 5872 5870 5868 5867 5865 5864 5864 5864 5863 5863 5861 5860 5859 5859 5857 5857 5859 5857 5853 5850 5847 5842 5836 5833 5832 5831 5830 5830 5830 5830 5829 5828 5826 5824
5886 5883 5880 5878 5877 5876 5875 5874 5873 5871 5870 5869 5867 5865 5866 5866 5866 5864 5864 5864 5863 5862 5861 5859 5859 5859 5855 5850 5848 5843 5838 5836 5834 5831 5829 5829 5830 5831 5831 5831 5829 5825
5889 5886 5883 5880 5879 5879 5878 5876 5874 5873 5872 5871 5869 5868 5867 5868 5867 5866 5865 5866 5866 5865 5864 5862 5861 5862 5858 5852 5848 5844 5841 5839 5836 5831 5829 5829 5829 5828 5828 5830 5830 5826
5890 5888 5885 5884 5882 5880 5879 5877 5876 5875 5873 5872 5871 5871 5869 5868 5869 5868 5866 5868 5868 5868 5867 5866 5865 5864 5861 5856 5851 5846 5843 5841 5837 5832 5831 5830 5828 5825 5825 5827 5828 5828